Time,TemperatureF,DewpointF,PressureIn,WindDirection,WindDirectionDegrees,WindSpeedMPH,WindSpeedGustMPH,Humidity,HourlyPrecipIn,Conditions,Clouds,dailyrainin,SoftwareType,DateUTC
2013-09-06 10:09:00,50.5,38.8,29.66,NE,45,0.0,0.0,64,0.00,RA,SKC,0.00,WeatherDisplay:10.37,2013-09-06 14:09:00,
2013-09-06 10:10:00,50.5,38.8,29.66,NE,45,0.0,0.0,64,0.00,RA,SKC,0.00,WeatherDisplay:10.37,2013-09-06 14:10:00,
2013-09-06 10:11:00,58.1,46.8,29.72,NNE,22,0.2,0.2,66,0.00,RA,SKC,0.00,WeatherDisplay:10.37,2013-09-06 14:11:00,
2013-09-06 10:16:00,59.0,46.0,29.71,SSE,158,0.0,0.2,62,0.00,RA,SKC,0.00,WeatherDisplay:10.37,2013-09-06 14:16:00,
2013-09-06 10:21:00,59.4,44.1,29.71,South,180,0.0,0.0,57,0.00,RA,SKC,0.00,WeatherDisplay:10.37,2013-09-06 14:21:00,
2013-09-06 10:26:00,59.4,44.6,29.71,SSE,158,0.5,0.5,58,0.00,RA,SKC,0.00,WeatherDisplay:10.37,2013-09-06 14:26:00,
2013-09-06 10:31:00,59.4,45.0,29.71,SSW,202,0.7,0.7,59,0.00,RA,SKC,0.00,WeatherDisplay:10.37,2013-09-06 14:31:00,
2013-09-06 10:36:00,60.6,40.8,29.71,NNW,338,1.6,1.6,48,0.00,RA,SKC,0.00,WeatherDisplay:10.37,2013-09-06 14:36:00,
2013-09-06 10:41:00,61.2,42.9,29.71,ESE,112,1.2,1.2,51,0.00,RA,SKC,0.00,WeatherDisplay:10.37,2013-09-06 14:41:00,
2013-09-06 10:46:00,61.2,42.9,29.71,SE,135,0.0,0.9,51,0.00,RA,SKC,0.00,WeatherDisplay:10.37,2013-09-06 14:46:00,
2013-09-06 10:51:00,61.2,41.3,29.71,South,180,1.2,1.2,48,0.00,RA,SKC,0.00,WeatherDisplay:10.37,2013-09-06 14:51:00,
2013-09-06 10:56:00,61.0,39.5,29.71,West,270,1.4,1.4,45,0.00,RA,SKC,0.00,WeatherDisplay:10.37,2013-09-06 14:56:00,
2013-09-06 11:01:00,60.6,41.9,29.71,NNW,338,0.9,0.9,50,0.00,RA,SKC,0.00,WeatherDisplay:10.37,2013-09-06 15:01:00,
2013-09-06 11:06:00,60.4,40.1,29.71,WSW,248,1.8,1.8,47,0.00,RA,SKC,0.00,WeatherDisplay:10.37,2013-09-06 15:06:00,
2013-09-06 11:11:00,61.0,43.7,29.71,East,90,0.0,0.7,53,0.00,RA,SKC,0.00,WeatherDisplay:10.37,2013-09-06 15:11:00,
2013-09-06 11:16:00,61.3,42.5,29.71,SSE,158,0.7,0.7,50,0.00,RA,SKC,0.00,WeatherDisplay:10.37,2013-09-06 15:16:00,
2013-09-06 11:21:00,61.5,43.2,29.71,SSE,158,0.7,0.7,51,0.00,RA,SKC,0.00,WeatherDisplay:10.37,2013-09-06 15:21:00,
2013-09-06 11:26:00,61.5,39.4,29.70,WSW,248,1.8,1.8,44,0.00,RA,SKC,0.00,WeatherDisplay:10.37,2013-09-06 15:26:00,
2013-09-06 11:31:00,61.5,42.2,29.70,SSW,202,1.2,1.2,49,0.00,RA,SKC,0.00,WeatherDisplay:10.37,2013-09-06 15:31:00,
2013-09-06 11:36:00,62.2,41.2,29.70,South,180,0.0,0.0,46,0.00,RA,SKC,0.00,WeatherDisplay:10.37,2013-09-06 15:36:00,
2013-09-06 11:41:00,62.6,43.2,29.69,South,180,0.0,1.2,49,0.00,RA,SKC,0.00,WeatherDisplay:10.37,2013-09-06 15:41:00,
2013-09-06 11:46:00,63.0,41.8,29.70,South,180,0.2,0.2,46,0.00,RA,SKC,0.00,WeatherDisplay:10.37,2013-09-06 15:46:00,
2013-09-06 11:51:00,62.8,40.5,29.70,NNE,22,1.6,1.6,44,0.00,RA,SKC,0.00,WeatherDisplay:10.37,2013-09-06 15:51:00,
2013-09-06 11:56:00,62.8,40.5,29.69,North,0,0.0,1.6,44,0.00,RA,SKC,0.00,WeatherDisplay:10.37,2013-09-06 15:56:00,
2013-09-06 12:01:00,63.1,42.6,29.69,ESE,112,1.4,1.4,47,0.00,RA,SKC,0.00,WeatherDisplay:10.37,2013-09-06 16:01:00,
2013-09-06 12:06:00,63.5,44.5,29.69,NNE,22,0.0,1.6,50,0.00,RA,SKC,0.00,WeatherDisplay:10.37,2013-09-06 16:06:00,
2013-09-06 12:54:00,63.5,44.5,29.69,ESE,112,0.5,0.5,50,0.00,RA,SKC,0.00,WeatherDisplay:10.37,2013-09-06 16:54:00,
2013-09-06 12:59:00,65.3,45.6,29.67,SSE,158,1.8,1.8,49,0.00,RA,SKC,0.00,WeatherDisplay:10.37,2013-09-06 16:59:00,
2013-09-06 13:04:00,65.5,45.3,29.67,NNW,338,0.5,0.5,48,0.00,RA,SKC,0.00,WeatherDisplay:10.37,2013-09-06 17:04:00,
2013-09-06 13:09:00,65.3,45.1,29.67,WSW,248,0.5,0.5,48,0.00,RA,SKC,0.00,WeatherDisplay:10.37,2013-09-06 17:09:00,
2013-09-06 13:14:00,65.5,46.3,29.67,NNE,22,1.2,1.2,50,0.00,RA,SKC,0.00,WeatherDisplay:10.37,2013-09-06 17:14:00,
2013-09-06 13:19:00,65.7,46.0,29.67,WSW,248,0.5,0.5,49,0.00,RA,SKC,0.00,WeatherDisplay:10.37,2013-09-06 17:19:00,
2013-09-06 13:24:00,65.8,46.7,29.67,SSE,158,0.0,0.5,50,0.00,RA,SKC,0.00,WeatherDisplay:10.37,2013-09-06 17:24:00,
2013-09-06 13:29:00,65.8,45.0,29.66,ENE,68,0.9,0.9,47,0.00,RA,SKC,0.00,WeatherDisplay:10.37,2013-09-06 17:29:00,
2013-09-06 13:34:00,65.8,46.7,29.66,South,180,1.4,1.4,50,0.00,RA,SKC,0.00,WeatherDisplay:10.37,2013-09-06 17:34:00,
2013-09-06 13:39:00,65.8,46.1,29.66,WSW,248,0.5,0.5,49,0.00,RA,SKC,0.00,WeatherDisplay:10.37,2013-09-06 17:39:00,
2013-09-06 13:44:00,65.8,47.2,29.66,SE,135,1.2,1.2,51,0.00,RA,SKC,0.00,WeatherDisplay:10.37,2013-09-06 17:44:00,
2013-09-06 13:49:00,66.2,47.0,29.66,West,270,0.5,0.5,50,0.00,RA,SKC,0.00,WeatherDisplay:10.37,2013-09-06 17:49:00,
2013-09-06 13:54:00,66.2,44.2,29.66,NNE,22,2.0,2.0,45,0.00,RA,SKC,0.00,WeatherDisplay:10.37,2013-09-06 17:54:00,
2013-09-06 13:59:00,66.2,46.5,29.65,NNE,22,0.9,0.9,49,0.00,RA,SKC,0.00,WeatherDisplay:10.37,2013-09-06 17:59:00,
2013-09-06 14:04:00,66.6,47.9,29.65,SE,135,1.8,1.8,51,0.00,RA,SKC,0.00,WeatherDisplay:10.37,2013-09-06 18:04:00,
2013-09-06 14:09:00,67.1,47.8,29.65,SE,135,0.7,0.7,50,0.00,RA,SKC,0.00,WeatherDisplay:10.37,2013-09-06 18:09:00,
2013-09-06 14:14:00,67.3,48.0,29.65,WSW,248,0.0,1.4,50,0.00,RA,SKC,0.00,WeatherDisplay:10.37,2013-09-06 18:14:00,
2013-09-06 14:19:00,67.3,47.5,29.64,ESE,112,0.0,2.0,49,0.00,RA,SKC,0.00,WeatherDisplay:10.37,2013-09-06 18:19:00,
2013-09-06 14:24:00,67.3,46.9,29.64,SW,225,1.2,1.2,48,0.00,RA,SKC,0.00,WeatherDisplay:10.37,2013-09-06 18:24:00,
2013-09-06 14:29:00,67.3,47.5,29.65,NE,45,0.5,0.5,49,0.00,RA,SKC,0.00,WeatherDisplay:10.37,2013-09-06 18:29:00,
2013-09-06 14:34:00,67.3,46.4,29.65,West,270,1.8,1.8,47,0.00,RA,SKC,0.00,WeatherDisplay:10.37,2013-09-06 18:34:00,
2013-09-06 14:39:00,67.5,47.6,29.64,South,180,2.4,2.4,49,0.00,RA,SKC,0.00,WeatherDisplay:10.37,2013-09-06 18:39:00,
2013-09-06 14:44:00,67.5,48.2,29.64,SSW,202,0.0,2.0,50,0.00,RA,SKC,0.00,WeatherDisplay:10.37,2013-09-06 18:44:00,
2013-09-06 14:49:00,67.3,47.5,29.63,SW,225,0.0,0.5,49,0.00,RA,SKC,0.00,WeatherDisplay:10.37,2013-09-06 18:49:00,
2013-09-06 14:54:00,67.3,48.0,29.63,South,180,1.2,1.2,50,0.00,RA,SKC,0.00,WeatherDisplay:10.37,2013-09-06 18:54:00,
2013-09-06 14:59:00,67.3,48.0,29.63,NW,315,0.2,0.2,50,0.00,RA,SKC,0.00,WeatherDisplay:10.37,2013-09-06 18:59:00,
2013-09-06 15:04:00,67.3,46.4,29.63,NW,315,2.0,2.0,47,0.00,RA,SKC,0.00,WeatherDisplay:10.37,2013-09-06 19:04:00,
2013-09-06 15:09:00,67.3,47.5,29.63,SW,225,0.0,0.5,49,0.00,RA,SKC,0.00,WeatherDisplay:10.37,2013-09-06 19:09:00,
2013-09-06 15:14:00,67.3,48.0,29.62,SE,135,0.0,1.4,50,0.00,RA,SKC,0.00,WeatherDisplay:10.37,2013-09-06 19:14:00,
2013-09-06 15:19:00,67.3,47.5,29.62,WSW,248,2.2,2.2,49,0.00,RA,SKC,0.00,WeatherDisplay:10.37,2013-09-06 19:19:00,
2013-09-06 15:24:00,67.3,47.5,29.62,ESE,112,0.9,0.9,49,0.00,RA,SKC,0.00,WeatherDisplay:10.37,2013-09-06 19:24:00,
2013-09-06 15:29:00,67.3,47.5,29.62,East,90,0.9,0.9,49,0.00,RA,SKC,0.00,WeatherDisplay:10.37,2013-09-06 19:29:00,
2013-09-06 15:34:00,67.3,46.9,29.62,WNW,292,0.7,0.7,48,0.00,RA,SKC,0.00,WeatherDisplay:10.37,2013-09-06 19:34:00,
2013-09-06 15:39:00,67.3,45.2,29.62,NNE,22,0.0,1.2,45,0.00,RA,SKC,0.00,WeatherDisplay:10.37,2013-09-06 19:39:00,
2013-09-06 15:44:00,67.1,46.7,29.62,WNW,292,0.7,0.7,48,0.00,RA,SKC,0.00,WeatherDisplay:10.37,2013-09-06 19:44:00,
2013-09-06 15:49:00,67.3,47.5,29.61,SW,225,0.9,0.9,49,0.00,RA,SKC,0.00,WeatherDisplay:10.37,2013-09-06 19:49:00,
2013-09-06 15:54:00,66.9,47.1,29.61,SSE,158,1.2,1.2,49,0.00,RA,SKC,0.00,WeatherDisplay:10.37,2013-09-06 19:54:00,
2013-09-06 15:59:00,66.9,46.6,29.61,NE,45,2.0,2.0,48,0.00,RA,SKC,0.00,WeatherDisplay:10.37,2013-09-06 19:59:00,
2013-09-06 16:04:00,66.9,47.1,29.60,WNW,292,0.5,0.5,49,0.00,RA,SKC,0.00,WeatherDisplay:10.37,2013-09-06 20:04:00,
2013-09-06 16:09:00,66.9,47.1,29.60,ESE,112,0.0,1.8,49,0.00,RA,SKC,0.00,WeatherDisplay:10.37,2013-09-06 20:09:00,
2013-09-06 16:14:00,66.9,47.1,29.60,SSW,202,1.2,1.2,49,0.00,RA,SKC,0.00,WeatherDisplay:10.37,2013-09-06 20:14:00,
2013-09-06 16:19:00,66.9,47.7,29.60,SSE,158,0.9,0.9,50,0.00,RA,SKC,0.00,WeatherDisplay:10.37,2013-09-06 20:19:00,
2013-09-06 16:24:00,66.9,47.7,29.60,SSE,158,0.0,0.0,50,0.00,RA,SKC,0.00,WeatherDisplay:10.37,2013-09-06 20:24:00,
2013-09-06 16:29:00,66.9,48.2,29.60,SSE,158,0.9,0.9,51,0.00,RA,SKC,0.00,WeatherDisplay:10.37,2013-09-06 20:29:00,
2013-09-06 16:34:00,66.9,48.2,29.60,ENE,68,0.5,0.5,51,0.00,RA,SKC,0.00,WeatherDisplay:10.37,2013-09-06 20:34:00,
2013-09-06 16:39:00,66.6,48.4,29.59,SSE,158,2.2,2.2,52,0.00,RA,SKC,0.00,WeatherDisplay:10.37,2013-09-06 20:39:00,
2013-09-06 16:44:00,66.4,48.7,29.59,SSE,158,1.2,1.2,53,0.00,RA,SKC,0.00,WeatherDisplay:10.37,2013-09-06 20:44:00,
2013-09-06 16:49:00,66.2,48.6,29.59,South,180,0.7,0.7,53,0.00,RA,SKC,0.00,WeatherDisplay:10.37,2013-09-06 20:49:00,
2013-09-06 16:54:00,66.2,49.1,29.59,East,90,0.9,0.9,54,0.00,RA,SKC,0.00,WeatherDisplay:10.37,2013-09-06 20:54:00,
2013-09-06 16:59:00,66.2,49.1,29.59,SSE,158,0.5,0.5,54,0.00,RA,SKC,0.00,WeatherDisplay:10.37,2013-09-06 20:59:00,
2013-09-06 17:04:00,66.0,48.4,29.59,WNW,292,0.0,0.0,53,0.00,RA,SKC,0.00,WeatherDisplay:10.37,2013-09-06 21:04:00,
2013-09-06 17:09:00,66.0,48.4,29.59,SW,225,0.0,0.0,53,0.00,RA,SKC,0.00,WeatherDisplay:10.37,2013-09-06 21:09:00,
2013-09-06 17:14:00,66.0,48.4,29.60,ESE,112,1.2,1.2,53,0.00,RA,SKC,0.00,WeatherDisplay:10.37,2013-09-06 21:14:00,
2013-09-06 17:19:00,66.0,48.4,29.60,SW,225,0.9,0.9,53,0.00,RA,SKC,0.00,WeatherDisplay:10.37,2013-09-06 21:19:00,
2013-09-06 17:24:00,66.0,47.9,29.59,ESE,112,0.7,0.7,52,0.00,RA,SKC,0.00,WeatherDisplay:10.37,2013-09-06 21:24:00,
2013-09-06 17:29:00,66.0,47.9,29.60,West,270,0.5,0.5,52,0.00,RA,SKC,0.00,WeatherDisplay:10.37,2013-09-06 21:29:00,
2013-09-06 17:34:00,65.8,47.2,29.60,WSW,248,0.0,1.2,51,0.00,RA,SKC,0.00,WeatherDisplay:10.37,2013-09-06 21:34:00,
2013-09-06 17:39:00,65.7,47.0,29.60,North,0,0.2,0.2,51,0.00,RA,SKC,0.00,WeatherDisplay:10.37,2013-09-06 21:39:00,
2013-09-06 17:44:00,65.7,47.0,29.60,West,270,0.7,0.7,51,0.00,RA,SKC,0.00,WeatherDisplay:10.37,2013-09-06 21:44:00,
2013-09-06 17:49:00,65.5,46.9,29.60,ENE,68,0.5,0.5,51,0.00,RA,SKC,0.00,WeatherDisplay:10.37,2013-09-06 21:49:00,
2013-09-06 17:54:00,65.1,46.5,29.60,SW,225,0.2,0.2,51,0.00,RA,SKC,0.00,WeatherDisplay:10.37,2013-09-06 21:54:00,
2013-09-06 17:59:00,65.1,47.1,29.60,NW,315,0.0,0.9,52,0.00,RA,SKC,0.00,WeatherDisplay:10.37,2013-09-06 21:59:00,
2013-09-06 18:04:00,64.9,46.9,29.60,West,270,0.2,0.2,52,0.00,RA,SKC,0.00,WeatherDisplay:10.37,2013-09-06 22:04:00,
2013-09-06 18:09:00,64.8,47.2,29.60,WSW,248,1.2,1.2,53,0.00,RA,SKC,0.00,WeatherDisplay:10.37,2013-09-06 22:09:00,
2013-09-06 18:14:00,64.8,47.2,29.59,WNW,292,0.5,0.5,53,0.00,CLR,SKC,0.00,WeatherDisplay:10.37,2013-09-06 22:14:00,
2013-09-06 18:19:00,64.4,47.4,29.59,West,270,2.3,2.3,54,0.00,CLR,SKC,0.00,WeatherDisplay:10.37,2013-09-06 22:19:00,
2013-09-06 18:24:00,64.2,47.2,29.59,West,270,0.0,0.0,54,0.00,CLR,SKC,0.00,WeatherDisplay:10.37,2013-09-06 22:24:00,
2013-09-06 18:29:00,64.0,48.0,29.59,West,270,0.0,0.0,56,0.00,CLR,SKC,0.00,WeatherDisplay:10.37,2013-09-06 22:29:00,
2013-09-06 18:34:00,63.7,48.2,29.59,West,270,0.0,0.0,57,0.00,CLR,SKC,0.00,WeatherDisplay:10.37,2013-09-06 22:34:00,
2013-09-06 18:39:00,63.1,48.1,29.59,West,270,0.0,0.0,58,0.00,CLR,SKC,0.00,WeatherDisplay:10.37,2013-09-06 22:39:00,
2013-09-06 18:45:00,63.0,47.9,29.59,West,270,0.0,0.0,58,0.00,CLR,SKC,0.00,WeatherDisplay:10.37,2013-09-06 22:45:00,
2013-09-06 18:50:00,62.4,47.9,29.59,West,270,0.0,0.0,59,0.00,CLR,SKC,0.00,WeatherDisplay:10.37,2013-09-06 22:50:00,
2013-09-06 18:55:00,62.1,48.0,29.58,West,270,0.0,0.0,60,0.00,CLR,SKC,0.00,WeatherDisplay:10.37,2013-09-06 22:55:00,
2013-09-06 19:00:00,61.3,48.2,29.58,West,270,0.0,0.0,62,0.00,CLR,SKC,0.00,WeatherDisplay:10.37,2013-09-06 23:00:00,
2013-09-06 19:05:00,60.8,48.1,29.58,West,270,0.0,0.0,63,0.00,CLR,SKC,0.00,WeatherDisplay:10.37,2013-09-06 23:05:00,
2013-09-06 19:10:00,60.8,48.1,29.58,West,270,0.0,0.0,63,0.00,CLR,SKC,0.00,WeatherDisplay:10.37,2013-09-06 23:10:00,
2013-09-06 19:17:00,60.3,48.0,29.58,West,270,0.0,0.0,64,0.00,CLR,SKC,0.00,WeatherDisplay:10.37,2013-09-06 23:17:00,
2013-09-06 19:22:00,59.7,47.5,29.58,WNW,292,0.0,0.0,64,0.00,CLR,SKC,0.00,WeatherDisplay:10.37,2013-09-06 23:22:00,
2013-09-06 19:27:00,59.4,47.2,29.58,WNW,292,0.0,0.0,64,0.00,CLR,SKC,0.00,WeatherDisplay:10.37,2013-09-06 23:27:00,
2013-09-06 19:32:00,59.0,47.2,29.58,WNW,292,0.0,0.0,65,0.00,CLR,SKC,0.00,WeatherDisplay:10.37,2013-09-06 23:32:00,
2013-09-06 19:37:00,58.6,46.9,29.58,WNW,292,0.0,0.0,65,0.00,CLR,SKC,0.00,WeatherDisplay:10.37,2013-09-06 23:37:00,
2013-09-06 19:42:00,58.1,46.8,29.58,WNW,292,0.0,0.0,66,0.00,CLR,SKC,0.00,WeatherDisplay:10.37,2013-09-06 23:42:00,
2013-09-06 19:47:00,57.6,46.7,29.58,WNW,292,0.0,0.0,67,0.00,CLR,SKC,0.00,WeatherDisplay:10.37,2013-09-06 23:47:00,
2013-09-06 19:52:00,57.4,46.5,29.59,WNW,292,0.0,0.0,67,0.00,CLR,SKC,0.00,WeatherDisplay:10.37,2013-09-06 23:52:00,
2013-09-06 19:57:00,57.0,46.6,29.59,WNW,292,0.0,0.0,68,0.00,CLR,SKC,0.00,WeatherDisplay:10.37,2013-09-06 23:57:00,
2013-09-06 20:02:00,56.3,46.3,29.59,WNW,292,0.0,0.0,69,0.00,CLR,SKC,0.00,WeatherDisplay:10.37,2013-09-07 00:02:00,
2013-09-06 20:07:00,56.1,46.1,29.59,WNW,292,0.0,0.0,69,0.00,CLR,SKC,0.00,WeatherDisplay:10.37,2013-09-07 00:07:00,
2013-09-06 20:12:00,55.8,46.5,29.59,WNW,292,0.2,0.2,71,0.00,CLR,SKC,0.00,WeatherDisplay:10.37,2013-09-07 00:12:00,
2013-09-06 20:17:00,55.4,46.2,29.59,WNW,292,0.0,0.0,71,0.00,CLR,SKC,0.00,WeatherDisplay:10.37,2013-09-07 00:17:00,
2013-09-06 20:22:00,55.0,46.2,29.59,WNW,292,0.0,0.0,72,0.00,CLR,SKC,0.00,WeatherDisplay:10.37,2013-09-07 00:22:00,
2013-09-06 20:27:00,55.0,46.2,29.59,WNW,292,0.0,0.0,72,0.00,CLR,SKC,0.00,WeatherDisplay:10.37,2013-09-07 00:27:00,
2013-09-06 20:32:00,54.7,46.2,29.59,WNW,292,0.0,0.0,73,0.00,CLR,SKC,0.00,WeatherDisplay:10.37,2013-09-07 00:32:00,
2013-09-06 20:37:00,54.5,46.0,29.59,SW,225,0.0,0.0,73,0.00,CLR,SKC,0.00,WeatherDisplay:10.37,2013-09-07 00:37:00,
2013-09-06 20:42:00,54.5,46.0,29.59,SW,225,0.0,0.0,73,0.00,CLR,SKC,0.00,WeatherDisplay:10.37,2013-09-07 00:42:00,
2013-09-06 20:47:00,54.3,45.8,29.59,SW,225,0.0,0.2,73,0.00,CLR,SKC,0.00,WeatherDisplay:10.37,2013-09-07 00:47:00,
2013-09-06 20:52:00,54.1,45.7,29.59,SW,225,1.2,0.0,73,0.00,CLR,SKC,0.00,WeatherDisplay:10.37,2013-09-07 00:52:00,
2013-09-06 20:57:00,54.0,45.9,29.58,SSE,158,1.2,1.2,74,0.00,CLR,SKC,0.00,WeatherDisplay:10.37,2013-09-07 00:57:00,
2013-09-06 21:02:00,53.8,46.0,29.58,SSE,158,0.2,0.2,75,0.00,CLR,SKC,0.00,WeatherDisplay:10.37,2013-09-07 01:02:00,
2013-09-06 21:07:00,53.6,45.9,29.58,SSE,158,0.0,0.0,75,0.00,CLR,SKC,0.00,WeatherDisplay:10.37,2013-09-07 01:07:00,
2013-09-06 21:12:00,53.2,45.5,29.58,SSE,158,0.0,0.0,75,0.00,CLR,SKC,0.00,WeatherDisplay:10.37,2013-09-07 01:12:00,
2013-09-06 21:17:00,53.1,45.3,29.58,SSE,158,0.0,0.0,75,0.00,CLR,SKC,0.00,WeatherDisplay:10.37,2013-09-07 01:17:00,
2013-09-06 21:22:00,52.9,45.2,29.58,SSE,158,0.0,0.0,75,0.00,CLR,SKC,0.00,WeatherDisplay:10.37,2013-09-07 01:22:00,
2013-09-06 21:27:00,52.7,45.0,29.58,SSE,158,0.0,0.0,75,0.00,CLR,SKC,0.00,WeatherDisplay:10.37,2013-09-07 01:27:00,
2013-09-06 21:32:00,52.5,45.2,29.58,SSE,158,0.0,0.0,76,0.00,CLR,SKC,0.00,WeatherDisplay:10.37,2013-09-07 01:32:00,
2013-09-06 21:37:00,52.3,45.0,29.57,SSE,158,0.5,0.5,76,0.00,CLR,SKC,0.00,WeatherDisplay:10.37,2013-09-07 01:37:00,
2013-09-06 21:42:00,52.3,45.0,29.58,SSE,158,0.0,0.0,76,0.00,CLR,SKC,0.00,WeatherDisplay:10.37,2013-09-07 01:42:00,
2013-09-06 21:47:00,52.0,45.3,29.57,SSE,158,0.2,0.2,78,0.00,CLR,SKC,0.00,WeatherDisplay:10.37,2013-09-07 01:47:00,
2013-09-06 21:52:00,51.4,44.8,29.57,SSE,158,0.0,0.0,78,0.00,CLR,SKC,0.00,WeatherDisplay:10.37,2013-09-07 01:52:00,
2013-09-06 21:57:00,51.3,45.3,29.57,SE,135,1.2,1.2,80,0.00,CLR,SKC,0.00,WeatherDisplay:10.37,2013-09-07 01:57:00,
2013-09-06 22:02:00,51.1,44.5,29.57,SE,135,0.2,0.2,78,0.00,CLR,SKC,0.00,WeatherDisplay:10.37,2013-09-07 02:02:00,
2013-09-06 22:07:00,51.1,44.5,29.57,SE,135,0.0,0.0,78,0.00,CLR,SKC,0.00,WeatherDisplay:10.37,2013-09-07 02:07:00,
2013-09-06 22:12:00,51.1,44.5,29.56,SW,225,0.0,0.0,78,0.00,CLR,SKC,0.00,WeatherDisplay:10.37,2013-09-07 02:12:00,
2013-09-06 22:17:00,51.3,44.6,29.56,SSW,202,0.0,0.2,78,0.00,CLR,SKC,0.00,WeatherDisplay:10.37,2013-09-07 02:17:00,
2013-09-06 22:22:00,51.3,44.6,29.56,SSW,202,0.0,0.0,78,0.00,CLR,SKC,0.00,WeatherDisplay:10.37,2013-09-07 02:22:00,
2013-09-06 22:27:00,51.3,45.0,29.56,SSE,158,0.2,0.2,79,0.00,CLR,SKC,0.00,WeatherDisplay:10.37,2013-09-07 02:27:00,
2013-09-06 22:32:00,50.9,44.6,29.57,SSE,158,0.0,0.0,79,0.00,CLR,SKC,0.00,WeatherDisplay:10.37,2013-09-07 02:32:00,
2013-09-06 22:37:00,50.5,44.6,29.57,SSE,158,0.2,0.2,80,0.00,CLR,SKC,0.00,WeatherDisplay:10.37,2013-09-07 02:37:00,
2013-09-06 22:42:00,50.5,44.6,29.57,SSE,158,0.0,0.0,80,0.00,CLR,SKC,0.00,WeatherDisplay:10.37,2013-09-07 02:42:00,
2013-09-06 22:47:00,50.4,44.4,29.57,SSE,158,0.0,0.5,80,0.00,CLR,SKC,0.00,WeatherDisplay:10.37,2013-09-07 02:47:00,
2013-09-06 22:52:00,50.4,44.4,29.57,SSE,158,0.0,0.0,80,0.00,CLR,SKC,0.00,WeatherDisplay:10.37,2013-09-07 02:52:00,
2013-09-06 22:57:00,50.4,44.4,29.57,SSE,158,0.0,0.0,80,0.00,CLR,SKC,0.00,WeatherDisplay:10.37,2013-09-07 02:57:00,
2013-09-06 23:02:00,50.4,44.1,29.57,SSE,158,0.0,0.0,79,0.00,CLR,SKC,0.00,WeatherDisplay:10.37,2013-09-07 03:02:00,
2013-09-06 23:07:00,50.4,44.4,29.57,SSE,158,0.0,0.0,80,0.00,CLR,SKC,0.00,WeatherDisplay:10.37,2013-09-07 03:07:00,
2013-09-06 23:12:00,50.2,44.2,29.56,SSE,158,0.0,0.0,80,0.00,CLR,SKC,0.00,WeatherDisplay:10.37,2013-09-07 03:12:00,
2013-09-06 23:17:00,50.0,44.1,29.56,SSE,158,0.0,0.0,80,0.00,CLR,SKC,0.00,WeatherDisplay:10.37,2013-09-07 03:17:00,
2013-09-06 23:22:00,49.6,43.7,29.57,SSE,158,0.0,0.0,80,0.00,CLR,SKC,0.00,WeatherDisplay:10.37,2013-09-07 03:22:00,
2013-09-06 23:27:00,49.6,44.0,29.57,SSE,158,0.0,0.0,81,0.00,CLR,SKC,0.00,WeatherDisplay:10.37,2013-09-07 03:27:00,
2013-09-06 23:32:00,49.6,44.0,29.56,SSW,202,0.0,0.0,81,0.00,CLR,SKC,0.00,WeatherDisplay:10.37,2013-09-07 03:32:00,
2013-09-06 23:37:00,49.6,44.0,29.56,SSW,202,0.0,0.0,81,0.00,CLR,SKC,0.00,WeatherDisplay:10.37,2013-09-07 03:37:00,
2013-09-06 23:42:00,49.6,44.0,29.56,SSW,202,0.0,0.0,81,0.00,CLR,SKC,0.00,WeatherDisplay:10.37,2013-09-07 03:42:00,
2013-09-06 23:47:00,49.6,44.0,29.56,SSW,202,0.0,0.0,81,0.00,CLR,SKC,0.00,WeatherDisplay:10.37,2013-09-07 03:47:00,
2013-09-06 23:52:00,49.6,44.0,29.56,SSW,202,0.0,0.0,81,0.00,CLR,SKC,0.00,WeatherDisplay:10.37,2013-09-07 03:52:00,
2013-09-06 23:57:00,49.5,43.9,29.56,SSW,202,0.0,0.0,81,0.00,CLR,SKC,0.00,WeatherDisplay:10.37,2013-09-07 03:57:00,